Theta_e
292 292 292 292 291 291 291 290 290 290 289 289 289 288 288 288 288 288 286 287 286 286 286 286 286 287 286 287 286 286 286 286 286 286 285 285 285 285 284 285 285 285 285 284 285 285 284 284 284 284 284 283 284 284 284 284 284 285 284 282 282 282 282 281 279 280 281 283 284 284 285 285 284 285 284 284 285 286 288 284 284 284 284 283 283
293 293 292 293 291 292 291 291 291 290 289 289 289 289 288 288 288 286 287 287 287 287 286 287 287 286 286 286 286 286 286 286 286 286 286 285 285 287 286 285 284 284 284 284 284 286 285 284 284 284 284 284 284 284 284 283 284 283 283 284 282 283 283 282 280 279 280 281 283 284 284 285 284 284 284 284 284 284 284 284 284 284 283 283 282
293 293 293 293 292 292 292 291 291 290 289 289 289 289 289 288 288 287 287 287 287 287 287 286 287 286 286 286 286 286 286 286 286 286 286 285 285 285 287 285 285 284 284 284 285 285 284 285 284 284 286 284 284 284 284 284 284 283 283 283 283 283 283 283 281 280 280 281 282 282 283 284 284 284 284 285 285 285 283 283 284 284 284 283 282
294 293 293 293 293 292 291 292 291 290 289 289 289 289 289 289 288 288 288 287 287 287 287 287 286 286 286 286 285 285 286 285 285 286 286 286 285 285 286 286 285 285 285 285 285 285 285 284 284 285 285 284 284 284 284 284 284 284 283 284 283 283 283 283 283 281 281 280 281 282 283 282 283 284 285 285 284 284 284 284 283 283 283 284 283
293 293 292 292 292 292 291 291 290 290 290 290 289 290 289 289 289 288 288 288 288 287 287 287 286 286 286 286 286 285 286 285 285 285 286 286 285 285 285 286 286 286 285 285 287 285 285 285 285 285 285 284 284 284 284 284 284 284 283 283 284 284 284 284 283 282 281 280 281 282 283 282 283 283 283 283 282 282 282 283 283 283 282 283 283
292 292 292 291 292 291 291 291 291 290 290 290 290 290 290 289 289 289 289 288 288 288 287 287 287 286 286 286 286 286 286 285 285 285 285 285 285 285 285 285 286 286 286 286 286 286 286 286 286 285 285 284 284 285 285 284 284 284 284 284 284 284 283 283 283 283 282 282 281 281 281 281 281 281 282 282 282 281 280 281 280 282 281 281 281
292 291 291 291 291 291 291 291 292 291 291 291 291 290 290 290 289 289 289 289 288 288 288 287 287 287 287 286 286 286 286 286 286 285 285 285 285 285 285 285 285 285 286 286 287 286 286 287 287 286 286 285 285 285 285 285 285 284 284 284 284 283 282 282 282 282 282 282 281 282 282 282 281 282 282 282 282 282 281 280 279 280 280 280 280
291 290 290 290 290 291 291 291 291 292 292 291 291 290 290 290 290 290 289 288 288 288 288 288 288 287 287 287 287 287 286 286 286 285 285 285 285 285 285 285 284 284 285 286 286 287 287 287 287 287 287 287 286 286 285 285 285 285 285 285 284 283 283 282 282 282 281 281 281 281 281 281 281 282 282 280 280 280 280 280 279 279 279 279 279
290 290 289 289 290 291 291 291 291 291 291 292 291 291 291 290 290 289 289 289 289 289 289 288 288 287 287 287 287 287 287 287 287 286 285 285 285 285 285 285 285 284 284 285 286 286 286 287 286 286 287 288 288 288 287 287 286 284 285 285 284 284 283 283 282 282 281 281 281 281 281 280 281 281 280 279 280 281 281 280 280 280 279 278 279
289 289 288 289 290 290 290 290 291 291 291 291 291 291 290 290 290 289 289 289 289 289 288 288 288 288 287 287 287 288 288 288 288 289 289 287 286 286 286 285 285 285 285 285 285 286 286 286 287 287 287 287 287 288 288 289 288 287 285 284 284 284 283 282 282 282 281 281 281 281 280 280 281 281 280 281 281 281 280 279 278 279 277 277 277
288 287 289 289 289 289 289 290 290 290 291 291 291 290 291 290 289 289 289 288 288 288 287 287 287 288 288 287 287 287 288 289 289 290 291 291 288 286 285 285 285 285 285 284 284 285 286 286 285 286 287 286 287 287 288 289 289 289 289 288 287 285 283 283 282 282 282 281 281 281 280 280 281 281 280 281 280 280 280 280 279 278 277 276 275
289 289 289 289 289 289 289 289 288 289 289 290 290 290 289 288 288 288 288 288 288 287 287 287 287 287 288 287 287 288 288 289 291 291 291 291 291 288 286 286 285 285 285 285 285 285 285 285 285 286 286 286 286 286 287 288 288 288 289 289 289 289 288 285 283 282 282 281 281 281 280 280 281 280 280 280 280 280 280 279 278 278 276 276 275
289 289 289 288 289 289 288 288 288 288 289 289 289 289 288 288 288 288 288 289 288 286 287 287 287 287 287 287 287 287 288 289 291 291 291 291 292 290 287 286 285 285 285 285 285 285 285 284 284 285 286 287 286 285 285 285 287 288 288 288 288 289 289 290 289 286 284 282 281 281 281 281 281 281 281 281 281 280 278 277 277 277 276 276 276
288 288 288 288 288 288 288 288 288 288 288 288 288 288 288 288 289 289 289 288 287 287 287 287 287 287 287 287 287 287 287 288 290 291 291 291 291 291 288 286 286 285 285 285 286 285 285 285 284 284 285 285 285 285 285 284 284 284 284 285 285 286 287 288 288 288 287 284 282 281 282 282 282 282 281 282 281 279 278 277 277 276 276 276 276
289 289 288 288 288 288 288 288 288 288 288 288 287 288 288 289 289 289 288 288 288 288 288 287 287 287 287 287 287 286 288 289 290 290 291 291 291 291 288 287 286 285 285 285 285 285 285 286 285 285 285 285 285 285 285 284 284 284 283 283 283 283 284 284 285 285 285 285 284 283 283 282 282 281 279 280 281 280 280 278 277 277 276 277 276
288 288 287 288 288 288 288 287 287 287 287 287 287 288 288 288 289 289 288 288 288 288 288 287 287 287 287 287 286 286 288 289 290 290 290 291 291 289 287 286 285 285 285 285 285 285 285 285 285 285 285 285 286 287 287 285 284 284 283 283 283 283 283 285 286 287 285 284 284 284 283 283 285 283 280 279 279 279 280 279 278 278 276 274 274
288 288 287 288 288 288 288 288 288 287 287 287 287 287 288 288 288 288 287 287 287 287 287 287 287 287 287 287 287 287 287 288 289 290 290 291 290 288 287 286 285 285 284 285 285 285 285 285 285 285 285 285 286 288 289 288 285 284 283 283 283 283 283 284 286 288 288 288 288 288 288 288 288 288 286 285 282 280 279 277 276 277 275 273 273
288 287 288 288 289 288 288 288 287 287 287 287 287 287 287 287 287 287 287 287 286 286 287 287 286 286 287 287 288 287 288 288 289 290 290 290 289 287 286 285 284 284 284 284 284 285 285 286 286 286 285 285 287 288 289 288 286 284 283 282 282 281 282 283 283 285 288 288 288 288 288 288 288 288 287 285 284 282 278 276 278 277 275 274 273
288 288 289 289 289 288 288 288 287 287 287 287 287 287 287 287 287 286 286 286 286 286 286 286 286 286 287 287 287 287 288 288 289 289 290 290 289 287 285 284 283 283 284 284 285 285 285 286 286 286 286 287 288 289 289 288 286 285 284 282 281 281 282 283 282 282 283 283 284 284 284 285 285 284 283 285 284 283 280 279 279 277 275 275 275
289 289 289 289 288 288 288 288 287 287 287 287 287 287 287 286 286 286 286 285 285 285 285 285 285 285 286 286 287 287 287 287 288 289 289 290 290 287 285 283 283 283 283 284 284 284 285 285 286 288 289 289 289 290 290 290 287 285 284 282 281 281 283 283 283 282 282 282 281 281 281 281 280 280 280 281 281 280 280 279 279 278 276 275 274
289 289 288 288 288 288 288 287 287 287 287 287 286 286 286 285 286 285 285 285 284 284 284 284 285 285 286 286 287 287 287 286 287 288 289 289 290 288 284 284 284 283 283 283 283 283 284 285 286 287 289 290 290 290 290 290 289 287 285 283 283 284 285 283 283 282 281 280 280 279 279 279 279 279 278 278 279 278 278 278 277 277 276 275 273
289 288 287 287 287 287 287 288 287 287 287 286 286 286 286 285 285 285 284 284 284 284 284 284 284 285 285 285 286 286 286 286 286 287 288 289 289 289 286 284 285 284 283 283 283 283 284 284 285 286 288 289 289 290 290 290 290 288 286 287 287 287 285 284 281 280 279 279 279 278 277 277 277 277 277 277 277 277 277 277 277 276 276 275 274
288 287 287 287 287 287 287 287 287 287 287 286 285 285 285 285 285 285 284 284 283 283 284 284 284 284 284 285 285 286 286 286 286 286 287 288 288 289 289 286 287 285 283 283 283 284 285 285 285 286 287 287 288 289 290 290 289 288 289 288 288 287 286 280 279 278 278 278 277 276 276 276 275 276 276 276 277 276 276 275 275 275 275 274 274
287 287 286 286 287 287 286 286 286 286 286 285 285 285 285 284 284 284 284 284 283 283 284 284 284 283 283 284 285 286 286 286 286 285 286 287 288 289 289 289 288 286 285 284 284 284 284 285 285 286 287 287 288 288 289 288 287 288 288 288 287 286 282 279 278 277 277 276 275 275 275 275 275 275 275 276 276 276 275 275 275 274 272 271 271
286 286 286 286 286 287 286 286 285 286 286 285 285 285 284 284 284 284 283 283 283 283 283 283 283 283 283 284 285 286 286 285 285 285 285 285 287 288 288 289 289 288 286 285 285 285 285 286 287 287 287 286 287 287 287 287 288 287 287 287 285 284 280 279 278 277 275 275 275 275 274 275 275 275 275 275 273 272 270 270 270 269 269 269 268
286 286 285 286 286 286 285 285 285 285 285 285 285 285 285 284 284 284 283 283 283 283 283 283 283 283 283 284 285 285 286 285 284 284 283 284 284 286 287 287 286 287 286 286 285 286 286 286 286 286 286 286 284 283 282 283 285 285 285 285 285 282 279 278 277 276 275 275 274 274 274 274 274 273 272 272 270 269 269 268 267 267 267 266 266
285 285 285 286 286 285 285 285 285 285 285 285 285 285 285 284 284 284 284 284 284 284 284 283 283 283 283 284 285 285 285 285 283 281 280 281 283 284 284 284 285 285 285 285 285 285 285 285 285 285 285 285 284 283 282 283 283 283 283 284 283 280 279 278 277 276 275 274 273 273 273 272 270 269 269 268 267 268 268 267 266 266 266 265 264
285 285 285 285 285 285 285 285 285 285 285 285 285 285 285 284 284 284 284 284 283 284 284 284 283 283 284 284 285 285 285 285 283 282 282 282 283 283 283 283 283 283 283 283 283 283 283 283 283 283 283 283 283 282 281 280 280 280 281 280 279 277 277 278 276 275 274 274 272 271 269 268 268 267 267 266 266 266 267 266 265 264 265 263 261
285 285 285 285 285 285 285 285 285 285 285 285 285 285 286 285 285 285 286 285 285 285 284 285 285 284 284 284 284 284 285 285 285 284 285 286 285 283 282 282 282 282 283 283 282 282 282 281 280 280 280 280 280 279 279 277 276 276 276 274 274 274 274 273 273 272 271 271 270 269 268 268 267 266 266 265 265 265 266 264 264 263 263 263 261
284 285 285 285 285 285 285 285 285 285 285 285 285 285 285 286 286 286 286 286 285 286 286 285 286 285 284 285 285 284 284 285 285 286 284 285 286 285 285 284 284 283 283 284 283 281 281 280 280 279 279 279 279 278 277 276 275 273 272 273 272 272 271 271 271 270 270 270 269 268 267 267 266 266 265 264 264 265 265 265 263 264 261 261 260
285 285 285 285 285 285 285 285 285 285 285 285 285 285 285 286 286 286 286 286 286 286 286 287 287 287 285 285 285 286 286 287 286 286 285 285 286 285 285 285 285 285 285 283 281 281 280 279 279 279 279 278 278 278 276 275 274 273 271 271 270 270 270 270 270 269 268 268 267 267 267 266 265 265 264 263 263 263 263 264 263 262 261 260 259
285 285 285 285 285 285 285 285 285 285 285 284 284 284 284 284 285 286 285 285 285 286 286 286 286 286 286 286 284 284 285 286 286 286 285 285 285 285 285 285 285 285 285 285 281 280 280 279 279 279 278 277 277 277 276 275 274 273 271 270 269 269 269 269 269 268 267 267 266 265 265 265 264 264 263 263 262 262 262 261 261 261 260 260 259
284 285 285 285 285 285 285 285 285 284 284 285 284 284 283 283 283 284 286 285 285 285 286 286 286 286 286 286 286 285 285 285 285 285 285 284 284 284 284 284 284 285 284 282 280 279 279 279 279 279 278 277 277 276 275 275 274 273 272 270 269 268 268 269 269 267 266 266 265 265 264 264 264 263 263 262 262 260 261 260 260 260 259 258 258
285 285 285 285 284 284 284 284 284 284 284 284 285 285 285 284 283 283 283 284 285 285 284 284 284 284 285 285 285 285 285 285 284 284 284 284 284 284 284 283 284 284 283 280 280 279 279 279 278 278 278 276 275 274 273 273 273 272 271 270 269 268 267 266 266 266 265 266 265 264 263 263 263 262 261 261 261 260 259 259 259 258 258 258 257
285 284 285 284 284 284 284 284 284 284 284 285 285 285 284 283 282 282 282 282 282 283 283 282 282 283 283 284 284 284 284 284 284 284 283 283 283 284 284 282 280 280 281 281 280 279 278 278 277 276 275 274 273 273 272 272 271 270 269 268 266 266 265 265 265 264 264 264 263 262 262 262 261 261 260 259 259 258 259 258 258 258 257 257 257
284 284 284 284 284 284 284 284 284 285 285 286 286 285 284 282 282 282 282 282 283 282 282 284 284 284 284 284 283 283 283 283 283 283 283 283 283 283 280 279 278 278 278 279 279 278 277 276 274 274 273 272 272 271 271 270 269 269 268 267 265 264 264 264 263 263 263 262 262 262 262 261 261 260 259 259 258 258 258 258 257 257 257 256 256
284 284 284 284 284 284 285 285 285 285 286 286 285 285 284 283 281 281 281 281 281 282 282 283 283 283 282 278 279 281 282 282 282 282 282 282 282 282 280 279 278 278 277 277 276 274 272 270 271 270 270 269 268 268 267 267 266 265 266 265 265 264 263 263 262 262 261 261 261 261 261 260 260 260 259 258 258 258 257 257 256 256 257 256 257
285 285 285 285 284 284 284 284 285 285 286 286 285 284 283 282 281 280 280 281 282 282 282 282 282 282 281 282 280 278 278 280 280 280 280 280 280 279 279 278 277 277 275 273 271 270 268 267 267 267 267 266 266 265 265 264 264 264 263 263 263 262 263 263 262 261 261 260 260 260 260 259 259 259 259 258 257 256 256 256 255 255 256 256 255
284 285 285 285 285 285 284 284 284 284 285 285 284 282 281 281 280 280 280 281 282 282 282 282 282 281 281 282 279 278 278 277 277 276 277 277 277 276 276 276 274 271 269 269 268 267 266 265 264 265 265 264 264 264 263 263 263 262 262 262 261 261 261 260 259 259 259 259 259 259 259 259 258 258 258 257 256 256 256 255 255 255 254 254 253
285 284 285 285 285 285 284 284 284 284 284 284 284 283 282 281 280 280 281 281 282 281 281 281 280 281 280 278 277 277 276 276 276 276 275 273 272 271 271 270 268 267 267 266 266 265 264 264 263 263 262 262 262 262 262 262 261 261 261 261 260 260 260 260 259 259 258 259 258 258 258 258 258 257 257 257 256 255 255 255 255 255 254 254 254
284 285 283 285 285 285 283 283 283 284 284 284 284 283 283 282 281 281 282 281 281 281 280 280 280 277 275 275 277 276 275 275 274 273 270 269 267 266 265 265 265 265 265 264 264 264 263 262 262 262 262 261 261 261 261 261 260 260 260 260 260 259 259 259 259 258 258 258 257 256 256 257 256 256 255 255 257 256 255 255 254 254 254 254 253
284 284 284 283 283 283 283 283 283 283 283 283 283 283 282 282 281 281 281 280 279 279 279 278 277 272 273 274 275 275 273 271 269 268 266 265 263 262 262 261 261 261 262 262 262 262 262 261 261 261 260 260 260 260 260 260 260 259 259 259 259 258 258 258 258 257 257 257 256 256 255 255 255 255 255 257 254 254 254 254 253 253 253 253 253
283 283 283 282 283 283 283 284 283 284 284 284 283 280 281 281 280 279 279 278 278 277 276 275 272 271 271 272 271 270 268 267 265 265 263 262 261 260 260 259 259 259 259 260 260 261 261 260 259 259 259 259 259 259 259 259 259 259 259 258 258 257 257 257 257 256 256 256 255 256 255 255 255 254 254 253 253 253 253 253 253 252 252 252 251
282 282 281 281 281 282 282 283 283 283 283 281 280 280 279 279 279 278 277 276 275 274 272 270 269 269 268 268 267 266 264 264 263 262 261 260 260 259 259 259 258 258 258 258 259 259 259 259 258 258 258 257 258 258 258 258 258 257 257 257 257 256 256 256 256 255 255 254 254 254 253 253 254 253 253 254 252 252 252 252 252 251 251 250 250
281 281 281 281 281 281 282 282 282 282 280 279 279 279 277 277 275 274 274 273 271 270 268 268 267 267 265 264 264 263 262 261 261 260 259 258 258 258 258 258 257 257 257 257 257 258 258 258 258 257 257 257 257 257 256 256 256 256 256 255 255 255 255 254 254 254 254 252 252 252 252 252 252 251 251 251 251 250 250 250 250 251 250 250 250
279 279 280 280 280 280 280 282 280 280 279 278 277 276 275 274 272 270 269 268 268 267 266 265 264 264 263 262 261 261 260 259 258 258 258 257 257 257 257 257 257 257 256 256 256 256 256 256 256 256 255 255 255 255 256 256 256 255 255 255 254 254 254 254 253 253 252 251 251 251 251 251 251 251 252 251 250 250 248 248 248 249 249 249 249
277 277 277 278 279 279 279 279 279 278 277 275 274 273 271 269 268 267 266 265 265 265 264 263 262 261 261 260 259 258 258 257 257 257 256 256 256 256 257 257 256 256 256 256 256 255 255 255 255 254 254 254 254 254 254 255 255 255 255 254 254 254 253 253 252 251 251 251 251 250 250 249 249 249 250 250 249 249 249 249 248 248 248 249 249
275 276 277 277 278 278 278 277 276 272 273 273 271 269 267 267 266 265 265 264 263 263 262 261 260 260 259 259 258 258 257 257 256 256 256 255 255 255 255 255 255 255 255 254 254 254 253 253 253 253 253 253 253 253 253 253 253 253 253 253 252 252 253 253 251 251 251 251 250 250 249 249 249 249 249 249 248 248 248 248 248 249 249 249 250
276 277 277 277 276 276 275 274 272 272 271 269 268 267 265 265 264 263 263 262 261 261 260 260 259 259 258 258 257 257 257 256 255 255 255 255 254 254 254 254 254 254 254 253 253 253 253 252 252 252 252 252 252 252 252 252 252 252 252 251 253 256 255 254 253 250 252 252 250 250 249 249 248 248 249 249 249 248 248 248 248 249 249 249 250
276 275 275 274 273 272 271 271 270 270 268 268 266 265 264 263 262 262 261 261 260 259 259 259 258 257 257 256 256 256 255 255 254 254 254 254 254 253 253 253 253 253 252 252 252 252 252 252 251 251 251 251 251 251 251 251 251 251 250 250 254 255 255 255 254 254 253 251 250 249 249 249 249 249 249 248 248 248 248 249 249 250 250 249 249
273 273 272 271 270 270 270 270 269 267 267 266 265 264 263 262 261 260 260 259 258 258 257 257 256 256 256 256 255 255 254 254 254 253 253 252 252 252 252 251 251 251 251 251 251 251 251 251 251 251 251 251 250 250 250 250 250 250 253 256 256 256 255 255 253 254 255 254 250 249 249 249 248 248 248 248 248 248 249 250 250 250 249 250 250
Wind_Speed
6 7 6 7 7 8 8 7 8 7 6 6 7 7 7 6 7 7 4 6 5 6 6 6 6 6 6 6 6 6 5 5 5 5 4 5 5 5 4 5 4 4 4 4 4 4 4 4 4 4 4 4 5 5 4 4 4 5 3 4 4 4 4 4 5 6 5 3 5 5 5 7 6 8 9 8 7 7 8 8 7 7 7 7 7
7 8 6 7 8 8 9 7 7 7 7 7 8 8 7 7 7 5 6 7 6 7 7 6 6 6 6 7 7 6 6 6 6 6 7 6 6 5 5 6 6 5 4 5 5 5 4 5 5 5 4 5 5 5 6 5 5 5 5 5 6 6 5 6 6 6 9 3 5 4 5 5 7 5 9 8 8 6 8 8 7 8 7 7 7
6 7 7 7 8 8 7 7 7 7 8 8 8 9 8 8 6 7 7 7 6 7 8 7 7 7 7 7 7 7 7 7 7 7 7 8 8 7 6 7 7 7 7 7 7 6 6 6 7 6 5 5 6 6 5 6 6 7 7 6 7 7 6 7 6 7 8 8 5 6 6 5 7 8 6 7 7 8 8 8 8 7 7 7 7
7 6 7 8 8 7 7 7 7 8 9 9 9 10 9 8 7 7 8 7 8 8 7 8 7 8 8 8 8 8 8 8 7 8 9 9 9 9 8 8 8 8 9 8 7 8 9 8 8 7 6 7 7 7 7 5 6 7 7 7 7 8 7 7 8 7 7 8 6 8 6 6 7 6 6 5 7 7 8 7 6 7 7 7 7
6 6 6 7 7 7 7 7 8 9 10 9 10 10 9 9 7 9 8 9 9 8 8 7 8 8 9 10 9 9 10 9 9 9 8 8 9 9 9 9 10 10 10 10 9 9 9 10 9 8 8 9 8 8 8 9 8 7 8 7 8 8 6 7 8 7 7 9 9 6 6 6 6 6 6 6 5 6 5 7 7 8 8 7 6
5 6 5 6 7 7 8 7 9 10 10 10 10 10 10 9 9 9 9 11 9 9 9 8 9 10 10 10 10 10 9 9 10 10 10 9 9 9 9 9 10 10 10 10 10 9 10 11 10 10 10 11 10 9 9 11 9 9 10 9 8 7 8 8 8 8 9 10 9 9 6 7 6 7 6 6 7 7 7 6 4 7 7 6 7
6 6 6 6 6 8 8 9 9 9 9 10 9 8 9 10 9 10 10 10 10 9 9 10 9 10 11 10 11 11 10 10 10 10 10 10 10 10 10 10 10 9 9 10 11 11 11 11 11 11 11 11 11 11 10 10 10 11 11 10 8 7 8 8 8 8 9 9 8 9 10 7 7 11 7 5 7 9 9 7 8 7 6 7 7
5 6 6 6 7 9 8 8 8 9 9 9 9 9 9 9 10 10 8 9 10 11 11 11 11 10 11 10 11 10 10 10 10 10 11 11 10 11 11 11 10 10 10 10 11 11 12 11 11 11 12 11 11 11 10 10 9 10 10 9 9 9 10 9 8 9 9 9 9 10 9 8 7 9 4 4 6 7 8 8 11 8 8 6 7
6 5 5 6 8 8 7 6 7 8 8 8 9 9 10 10 9 9 8 10 9 11 11 10 10 11 10 11 11 10 10 11 10 10 11 12 11 11 12 11 11 11 11 11 11 11 11 11 11 11 12 15 17 14 13 12 9 10 10 9 9 10 10 9 9 9 9 9 10 9 8 8 11 9 8 8 11 13 7 7 10 8 6 6 6
5 5 5 7 7 7 8 7 7 7 7 9 9 8 8 8 9 8 10 10 10 10 9 10 11 11 11 11 11 10 10 9 12 18 16 12 11 11 10 10 11 11 11 11 11 11 12 11 11 15 17 18 18 18 18 18 18 13 11 10 11 10 10 10 10 10 10 11 12 11 10 12 12 11 10 11 9 6 7 7 10 8 4 7 5
5 5 7 6 7 7 7 8 7 8 8 8 8 8 9 8 8 9 9 9 11 10 10 11 11 11 12 12 12 11 11 11 18 18 20 22 15 10 10 10 10 11 11 11 12 11 11 11 10 12 15 16 17 20 20 21 21 21 21 19 14 12 11 12 12 12 11 12 11 10 12 13 13 9 9 10 7 10 10 9 10 6 8 7 9
5 6 6 7 7 8 8 8 8 9 8 9 9 9 8 8 9 10 10 10 11 9 10 12 12 11 10 11 12 12 12 15 19 18 20 21 19 13 9 9 10 10 11 12 11 10 11 10 9 9 11 13 13 14 18 21 22 22 22 21 21 21 19 15 13 11 12 13 11 13 11 13 11 6 8 6 9 8 8 8 9 9 8 8 7
6 7 7 7 8 8 7 8 9 9 8 8 8 7 8 8 9 9 11 11 8 8 12 11 12 12 11 12 12 12 12 15 18 19 19 20 21 17 10 10 10 11 11 12 12 11 10 9 10 9 10 16 14 13 13 14 18 22 22 22 22 23 23 23 21 16 11 12 13 13 12 11 10 9 7 6 5 8 6 7 7 7 7 8 8
7 8 7 7 7 7 8 8 8 8 8 8 8 8 8 10 10 9 9 7 8 10 10 12 11 11 11 12 12 12 12 14 18 18 18 19 20 17 10 12 11 11 13 12 11 11 11 11 11 11 11 10 10 12 12 11 11 11 12 14 14 18 22 24 25 26 20 14 12 14 10 7 12 7 6 6 6 8 7 8 6 7 8 9 3
8 7 8 8 7 7 8 8 9 8 8 8 8 9 9 9 9 9 8 9 9 10 11 11 11 11 11 12 11 11 11 16 18 18 18 18 19 16 10 10 10 12 13 13 12 11 11 11 11 12 12 11 11 12 10 11 11 10 11 12 13 13 13 14 16 15 14 13 14 15 13 9 9 5 4 5 8 7 8 7 8 6 3 0 1
9 7 8 8 8 8 8 8 8 8 8 8 8 9 9 9 10 9 8 8 8 8 9 9 10 11 11 11 11 12 12 16 18 18 18 18 19 11 10 11 11 12 14 14 12 11 11 12 12 12 13 13 14 16 14 11 10 12 13 13 12 11 12 13 16 13 11 11 13 14 13 13 13 9 6 6 5 4 4 4 3 2 2 3 8
9 8 8 8 8 8 7 8 8 8 7 8 8 9 9 9 8 6 7 8 8 9 10 9 8 9 10 10 11 12 11 14 19 18 17 18 14 9 10 10 11 13 14 12 11 11 11 12 13 12 12 13 15 16 16 15 11 12 13 13 12 10 12 9 12 17 18 19 19 18 19 18 18 17 14 14 9 8 5 4 7 5 4 8 8
8 7 8 8 8 7 7 7 8 8 7 8 9 8 8 7 7 6 7 8 8 8 8 8 8 8 9 11 11 11 11 12 17 17 16 17 14 10 10 10 11 12 12 10 9 10 13 19 16 13 12 13 14 15 17 14 12 12 12 12 12 12 11 8 5 8 17 20 21 20 18 18 17 19 16 16 16 11 9 11 5 5 7 7 9
8 7 8 7 7 7 7 7 7 8 8 8 7 8 8 8 7 6 7 7 8 7 7 8 8 7 8 10 11 13 12 12 15 16 16 16 14 9 9 8 10 11 10 10 10 10 12 13 17 17 15 14 16 16 18 15 12 11 12 11 12 13 11 7 8 8 8 7 8 7 7 10 9 8 9 15 15 10 6 5 4 7 7 7 6
8 7 7 7 6 7 6 7 7 7 9 8 7 8 7 6 7 7 7 7 8 7 8 8 9 8 8 9 11 12 12 11 11 17 15 15 16 10 7 8 11 12 10 10 10 10 11 11 12 17 20 20 19 20 19 18 13 10 9 10 11 15 8 8 8 8 8 8 7 6 6 5 5 4 4 4 4 3 4 4 5 5 6 6 5
8 7 6 6 6 7 7 6 8 8 7 7 7 7 6 7 7 7 8 8 7 8 8 8 8 9 9 10 11 11 10 10 10 15 16 16 16 14 8 12 12 10 10 10 10 11 10 10 8 11 16 18 19 19 19 19 17 12 10 11 13 10 5 6 8 11 9 7 7 6 6 5 5 4 3 4 4 5 4 3 4 5 6 6 6
8 6 6 6 7 7 7 7 6 7 7 6 7 8 7 7 8 8 7 7 8 9 8 8 9 10 9 10 10 11 9 12 10 13 17 17 16 18 12 12 12 10 9 9 9 10 10 8 8 9 13 15 16 16 18 18 20 13 12 13 12 10 9 6 5 5 6 6 6 6 5 5 5 5 6 5 5 5 5 4 4 3 2 4 5
7 6 5 6 7 8 7 7 7 6 7 6 7 9 8 7 7 7 8 8 8 9 10 9 9 9 9 9 9 10 10 9 14 13 15 15 14 16 17 14 11 10 9 10 12 11 8 8 8 10 13 13 14 16 17 18 16 12 14 14 13 14 10 5 5 6 6 6 6 7 6 6 7 6 6 5 5 5 3 3 2 2 2 2 3
6 6 6 6 8 8 7 7 6 7 8 7 7 9 9 7 7 8 8 8 8 9 9 8 8 8 9 10 10 10 8 8 10 13 12 14 14 16 17 19 17 12 10 10 10 10 9 8 8 10 11 11 12 13 14 14 10 12 14 14 15 13 7 7 7 7 7 7 7 8 8 6 6 6 5 3 3 3 3 2 3 1 1 1 2
7 7 6 7 9 8 7 7 7 7 7 7 8 9 8 6 8 7 7 7 7 8 9 8 8 8 8 10 10 9 7 6 7 9 13 14 15 16 17 18 19 18 12 11 10 10 11 13 13 12 10 9 9 10 10 12 15 14 14 14 13 8 8 8 9 8 9 10 9 7 6 6 6 3 4 4 4 4 4 4 3 2 2 1 1
7 8 7 7 9 8 8 8 6 7 8 7 8 8 8 8 8 8 6 7 7 8 9 8 8 7 8 10 10 9 8 6 7 7 7 9 10 14 16 16 16 16 15 12 13 14 15 16 16 16 14 13 9 6 6 7 9 12 13 13 9 7 8 8 8 9 10 8 7 7 5 4 3 4 4 5 4 3 3 2 1 1 1 3 5
8 8 8 8 9 7 8 8 7 7 6 6 7 8 7 7 7 8 7 7 7 8 9 9 8 7 9 9 9 8 8 6 7 6 6 6 6 7 7 8 10 10 8 9 9 10 11 11 10 11 10 11 11 10 9 9 8 8 8 9 8 7 8 9 9 9 7 6 5 4 4 4 5 5 4 4 4 3 3 3 1 2 2 3 4
9 9 9 8 8 8 8 9 9 8 7 6 7 7 7 6 7 8 8 7 7 9 9 9 8 8 9 9 8 8 8 7 6 7 6 6 6 5 5 5 5 5 6 6 6 7 7 8 9 9 8 9 9 8 7 7 7 6 7 7 5 4 6 5 4 3 3 4 4 5 5 4 5 4 4 4 3 2 2 3 3 3 3 2 3
8 9 8 8 9 7 7 7 7 8 7 6 6 7 8 8 7 8 8 7 7 9 10 11 10 8 8 9 8 9 8 7 6 6 7 7 7 5 5 5 5 5 7 8 6 6 6 7 7 8 7 8 7 7 6 5 4 4 4 4 4 5 5 5 6 5 5 6 6 6 5 5 4 4 4 3 3 3 3 3 3 4 3 3 7
7 9 8 8 9 7 7 7 7 7 7 7 7 7 9 12 10 8 9 10 13 15 13 12 11 8 8 9 7 10 10 6 4 5 4 4 6 8 7 7 8 8 8 12 8 6 7 8 8 8 8 7 7 7 7 6 5 4 2 3 3 4 4 4 4 5 5 5 5 5 5 4 4 4 3 4 3 3 4 5 4 3 4 5 6
8 8 8 8 8 7 7 7 7 6 7 7 7 7 8 7 10 14 15 15 15 15 15 18 20 18 13 12 10 13 14 12 8 7 7 7 8 8 9 10 11 12 12 7 7 8 8 8 8 7 7 7 7 7 5 5 5 4 3 3 3 4 4 4 4 5 5 5 4 4 4 4 4 4 4 4 4 4 3 3 4 4 5 5 7
8 9 8 7 7 7 7 7 7 7 7 6 6 6 7 8 10 9 9 13 14 15 16 16 17 17 18 16 13 10 10 13 15 13 10 9 10 11 12 13 14 14 14 14 9 8 8 8 7 7 6 7 7 5 5 5 5 5 5 5 4 4 5 5 5 5 5 5 5 4 5 4 4 4 4 4 4 4 4 4 4 5 5 5 7
9 10 9 7 7 8 8 8 8 7 7 7 6 5 6 7 9 11 10 7 10 12 14 13 14 15 15 15 16 15 15 12 11 11 10 9 9 9 11 14 15 16 15 10 9 8 7 7 7 6 6 6 5 5 5 5 5 5 5 5 5 4 4 4 5 5 4 5 5 5 5 5 4 4 4 4 4 4 4 5 5 5 5 6 7
10 9 8 8 7 7 8 7 8 8 7 7 7 6 6 6 7 7 8 11 12 7 8 9 11 12 13 13 14 14 14 15 13 12 11 11 12 13 12 10 13 15 12 8 7 8 7 7 7 6 5 3 3 4 4 4 4 5 4 4 5 5 5 5 5 4 4 5 5 5 5 4 4 4 4 4 4 4 5 6 5 5 6 7 7
8 10 13 10 7 8 8 8 8 8 7 7 6 6 7 5 5 6 7 8 8 10 12 8 5 8 9 8 9 11 12 12 11 10 11 11 12 12 12 8 8 6 7 7 7 7 6 6 5 2 1 3 2 3 3 4 4 4 5 5 5 5 5 4 4 4 4 4 4 4 4 4 4 4 4 5 4 5 6 5 5 6 6 6 6
9 8 8 8 8 7 8 8 8 8 8 7 6 6 6 5 5 6 6 6 7 9 9 8 7 5 8 9 9 8 8 8 9 9 10 11 11 10 8 7 6 6 5 5 5 5 2 1 1 2 3 3 3 3 3 4 3 4 3 5 5 5 5 4 4 4 3 4 3 3 3 3 4 4 4 4 6 6 5 5 5 5 5 6 6
8 8 8 7 7 7 7 7 7 7 7 7 6 6 6 6 5 5 5 6 7 7 7 8 8 7 3 3 6 6 7 8 9 9 10 9 11 7 6 6 5 4 3 4 1 1 4 5 4 4 4 4 4 4 4 4 5 6 5 5 4 4 4 4 4 3 4 3 3 4 4 4 4 4 4 5 4 4 4 4 5 6 7 7 6
8 8 8 7 6 6 6 7 8 8 8 7 6 6 6 6 6 5 6 7 7 7 7 7 6 7 8 6 1 2 3 4 6 6 6 7 6 5 4 3 4 3 1 3 4 4 4 4 4 4 4 4 5 4 5 4 4 5 5 4 5 5 5 4 3 4 3 3 3 3 3 3 3 3 3 4 5 4 5 5 5 6 6 7 6
7 10 13 12 9 7 7 7 8 7 8 7 6 5 6 6 6 5 5 6 6 6 5 5 5 6 6 5 4 1 2 4 4 4 4 3 2 3 3 3 2 4 4 4 5 5 5 5 3 5 5 4 4 4 4 3 4 4 3 3 3 3 3 3 3 3 3 2 2 1 2 2 2 2 3 4 5 4 5 4 5 5 6 6 6
8 7 7 9 7 7 7 7 7 7 7 7 7 6 6 6 6 5 5 6 6 6 5 5 5 4 4 5 4 4 5 4 4 5 4 3 4 4 5 5 5 4 4 4 5 5 6 5 4 5 4 4 4 4 4 3 3 3 3 2 3 3 3 2 2 3 2 2 2 2 2 2 3 3 3 4 4 4 4 5 5 5 6 6 6
7 7 6 6 7 6 6 6 7 8 7 7 7 6 7 5 5 4 5 6 6 5 5 4 3 3 4 5 8 7 4 4 4 4 4 5 5 5 6 6 5 5 5 5 5 5 5 5 5 5 5 4 4 4 3 3 3 3 2 2 3 2 2 2 2 1 1 1 1 1 1 1 2 3 4 4 4 4 4 4 5 5 6 5 5
7 6 6 5 5 5 6 7 7 8 8 7 7 7 5 4 4 3 4 5 4 4 4 3 3 3 5 10 8 8 4 4 4 4 5 6 6 6 6 6 6 6 5 5 5 5 5 5 5 5 5 4 4 4 3 3 3 3 3 3 2 2 2 1 1 0 0 1 1 2 2 2 2 3 3 3 3 4 4 5 5 5 5 5 5
6 6 6 4 5 6 7 8 7 7 7 7 6 5 4 4 3 1 3 3 3 3 3 3 3 4 5 8 7 8 5 5 5 5 5 6 6 6 6 6 6 6 6 6 6 5 5 5 5 5 5 5 5 4 4 3 3 3 3 3 3 2 2 2 2 1 0 1 2 2 2 2 3 2 3 3 4 4 5 5 5 5 5 5 5
6 5 4 5 5 6 5 7 7 6 6 6 5 3 3 3 2 2 2 2 2 3 4 3 3 3 4 5 6 5 5 5 5 5 6 6 6 6 6 6 5 5 5 5 5 5 5 5 5 5 5 4 4 4 4 4 4 3 3 3 3 3 2 1 0 1 1 1 1 1 2 2 2 2 3 4 3 4 5 4 5 5 5 5 6
5 5 5 5 5 5 6 6 6 5 4 3 3 3 1 1 2 2 2 2 2 3 3 3 3 3 3 4 4 5 5 5 5 6 6 6 5 5 5 5 5 5 4 4 4 4 4 4 5 5 5 4 4 4 4 4 4 4 3 3 2 2 2 2 2 2 2 2 2 2 2 2 3 3 4 4 3 3 4 4 4 5 6 6 6
5 4 4 5 4 4 4 5 3 4 3 2 2 0 2 2 3 4 3 3 3 3 3 4 4 4 4 4 4 5 5 5 5 5 5 5 5 5 5 4 4 5 4 4 4 5 5 5 4 5 5 5 4 4 4 4 3 3 3 3 2 2 2 2 2 3 3 2 2 2 2 2 2 3 4 4 3 4 4 4 4 5 6 7 7
3 3 3 3 4 3 3 3 3 3 1 1 0 1 2 3 3 3 3 4 4 3 4 4 4 4 4 4 5 5 5 5 5 5 5 5 4 4 4 4 4 5 5 5 5 5 5 5 5 5 4 4 3 4 3 3 3 3 3 3 3 3 3 2 2 2 2 2 2 1 1 1 3 2 5 4 4 5 4 5 5 6 6 7 7
2 2 2 2 3 4 3 2 1 0 1 1 2 2 2 3 3 3 3 4 4 4 4 4 4 4 5 5 5 5 5 5 5 5 4 4 4 4 4 5 5 4 4 5 5 5 4 4 4 4 4 4 4 3 3 3 3 3 3 3 3 1 1 1 1 2 2 3 3 3 3 3 4 4 4 4 5 5 6 6 6 6 7 7 8
4 3 2 2 2 2 1 1 1 2 2 3 3 3 2 3 4 4 4 4 4 4 4 4 5 5 5 5 5 5 5 5 5 5 5 4 4 4 4 4 5 4 4 4 4 4 4 4 4 4 4 4 4 3 3 3 3 3 3 2 4 4 3 4 2 3 4 4 4 3 3 3 4 5 5 5 6 6 6 7 6 7 7 8 8
4 4 3 3 2 2 2 2 3 3 2 3 4 4 4 4 4 4 4 4 5 4 4 5 5 5 5 5 5 5 5 5 5 4 4 4 4 4 4 4 4 4 4 4 4 4 4 4 4 4 4 4 3 3 3 3 2 3 3 3 7 5 6 6 7 8 6 4 4 4 4 4 4 5 5 6 6 7 7 7 7 8 7 8 8
4 4 4 4 4 3 3 3 3 3 3 3 4 4 5 5 4 4 4 4 5 5 5 5 5 5 5 5 5 5 5 5 5 4 4 4 4 4 4 4 4 4 4 4 4 4 4 4 4 4 3 3 3 3 2 3 3 4 7 8 6 6 5 4 3 5 7 6 1 2 3 4 4 5 5 5 6 6 9 9 9 8 8 8 9
Wind_Direction
236 234 225 225 221 225 229 228 233 230 234 230 234 238 236 230 229 228 221 228 213 214 213 212 214 214 215 216 218 216 209 211 204 204 211 221 228 219 208 200 216 237 209 213 205 210 209 202 212 222 191 186 200 199 193 194 188 202 196 182 195 200 174 183 200 245 280 242 234 229 210 194 223 209 214 218 216 215 209 214 209 213 218 219 223
236 236 229 224 220 226 227 224 227 227 228 231 233 238 239 234 233 227 225 230 211 219 217 216 215 215 214 218 216 216 213 211 208 199 206 213 227 215 198 194 207 225 221 215 211 209 213 210 220 216 207 197 206 209 200 200 194 198 219 197 203 211 195 180 213 212 251 263 248 250 245 199 230 197 204 212 224 212 211 216 214 212 218 214 218
239 236 231 227 229 227 224 223 221 223 224 230 232 234 235 237 227 225 230 232 225 220 220 217 216 216 218 220 217 218 216 212 207 203 207 209 216 218 207 197 201 211 220 220 210 203 209 216 220 211 207 206 217 222 210 205 199 199 211 207 209 212 208 197 191 221 234 250 217 235 233 231 218 235 222 217 216 208 214 215 212 215 215 209 213
242 239 235 234 233 232 228 227 220 220 221 226 229 233 232 233 225 225 230 229 229 229 220 220 217 216 221 222 220 220 218 215 212 207 209 209 212 213 210 207 206 210 213 218 213 203 207 213 220 213 207 207 212 216 223 218 209 209 209 213 210 214 214 209 207 208 220 242 242 216 227 227 248 245 235 216 214 220 218 221 212 213 217 214 215
239 240 234 240 242 237 239 232 229 226 225 225 228 231 231 230 225 224 226 230 229 228 230 221 220 219 221 222 222 221 220 215 214 216 216 214 212 213 212 209 211 213 214 215 213 208 208 211 215 210 209 213 213 212 213 217 221 215 217 215 214 216 215 214 220 212 219 232 253 239 225 234 238 241 225 222 237 236 227 218 212 219 224 219 217
237 239 236 236 244 243 243 239 236 233 232 231 230 229 228 226 225 226 220 228 230 225 228 226 220 226 226 227 224 224 223 217 216 218 220 219 218 218 218 218 216 216 216 216 215 213 214 214 213 207 208 212 216 214 211 214 214 218 222 221 217 214 217 224 218 221 223 234 237 262 243 235 253 245 227 206 220 242 249 242 238 230 223 228 225
235 234 238 236 244 246 242 239 236 238 238 237 237 233 229 226 223 226 223 223 225 227 227 229 227 225 230 228 230 227 225 222 220 220 222 221 221 221 222 223 225 223 222 219 218 219 219 220 217 212 212 213 216 215 213 215 214 219 221 223 218 216 221 224 221 221 226 235 240 240 254 242 229 255 238 200 220 221 236 247 247 239 229 213 233
237 236 236 243 245 251 250 249 247 244 243 240 238 236 234 230 226 227 223 222 224 225 226 225 229 225 229 228 231 231 229 228 224 222 224 224 223 225 224 225 226 228 230 228 225 224 224 224 224 221 220 221 219 221 213 218 216 223 225 223 220 220 225 228 228 228 233 237 236 244 237 246 249 248 248 201 240 250 227 226 243 237 232 220 217
243 241 242 245 251 254 259 258 255 254 250 248 242 237 234 232 230 227 222 225 225 227 228 226 229 231 230 229 231 229 230 230 226 221 223 227 224 226 226 226 226 229 232 234 233 231 231 230 229 228 226 228 227 225 221 217 214 222 226 220 221 222 227 229 228 231 237 237 245 241 244 241 242 244 232 215 225 234 222 207 239 237 227 230 241
246 253 250 253 259 260 259 259 258 256 255 251 248 244 240 236 231 230 229 228 228 227 227 229 228 230 230 230 229 228 230 232 227 221 221 224 225 226 226 226 227 230 233 236 237 234 233 233 233 232 232 232 234 233 232 228 223 221 224 218 220 221 224 227 227 229 233 235 237 237 238 240 240 233 232 230 231 236 230 216 236 234 220 237 247
253 244 252 256 259 261 261 260 257 257 253 254 253 249 245 241 238 237 236 233 233 231 227 230 229 230 229 228 228 228 229 232 229 224 225 226 226 226 222 226 228 230 234 234 237 235 235 234 236 237 237 238 239 237 236 236 234 231 230 227 220 217 222 226 229 227 229 235 236 233 236 244 242 232 228 234 214 220 221 219 228 216 212 217 237
260 259 256 262 263 262 259 259 259 257 255 253 252 251 250 247 242 238 238 239 236 229 230 232 232 232 233 233 233 232 233 233 232 227 227 229 227 226 223 226 228 230 233 235 236 236 236 235 234 234 233 234 234 237 239 239 239 238 236 235 234 229 223 222 228 232 229 237 236 232 236 241 249 216 232 214 227 225 222 214 209 210 211 217 227
269 268 267 264 264 263 263 261 260 262 260 260 262 263 258 254 252 248 244 242 243 234 236 235 235 235 233 236 237 236 238 237 236 231 228 230 230 226 226 227 230 233 235 235 235 233 234 234 237 235 237 235 234 234 236 239 240 242 242 242 241 240 239 237 233 233 234 238 239 243 231 246 248 238 215 216 197 220 207 210 207 205 208 224 226
267 266 266 264 264 263 263 264 264 262 263 262 260 259 256 253 251 250 252 249 241 242 242 241 240 239 237 237 241 241 241 246 243 240 234 232 231 227 225 230 232 236 239 238 236 232 229 231 233 239 238 235 234 234 234 236 238 240 243 241 242 244 244 243 245 244 243 243 245 250 243 226 246 242 220 206 200 216 196 216 199 205 210 226 197
276 271 270 269 266 266 264 263 263 264 262 261 260 257 256 259 257 255 251 246 245 242 242 244 242 241 240 239 242 243 242 244 246 243 240 236 234 229 225 230 232 238 241 241 239 235 232 232 234 239 241 236 233 232 231 232 235 236 238 239 238 239 239 241 242 242 243 244 248 252 254 242 247 233 209 195 205 204 197 199 192 198 201 46 356
273 273 273 271 267 263 260 262 262 263 264 262 259 260 259 257 262 260 254 251 249 249 251 243 246 243 241 242 244 247 245 243 245 242 238 238 235 228 224 226 228 234 240 241 239 238 238 237 238 239 240 240 239 233 229 229 232 236 239 242 243 240 238 236 240 241 238 239 242 244 245 242 241 233 183 176 166 145 116 105 115 158 209 259 250
270 269 269 270 267 265 261 262 265 264 262 262 260 260 262 264 262 259 261 253 251 248 250 248 246 248 249 244 244 249 249 244 246 243 236 235 230 222 224 226 229 234 239 241 239 239 239 237 236 239 240 243 241 236 235 230 235 236 242 245 245 246 248 243 236 234 234 233 232 231 236 238 239 232 193 185 170 157 142 163 214 182 203 245 257
270 267 268 267 266 265 261 260 265 264 262 259 260 261 259 263 264 259 257 263 258 251 253 257 249 245 248 250 244 253 253 249 249 248 236 232 222 219 219 223 231 236 243 243 241 241 240 238 237 239 241 243 241 237 237 233 237 236 241 245 247 248 250 243 232 229 230 235 235 233 232 232 228 234 198 181 173 164 169 213 189 167 225 230 256
273 270 266 262 263 265 265 264 264 266 266 263 261 266 262 260 263 264 260 260 259 259 256 256 256 246 243 250 253 250 254 251 249 251 238 232 224 217 215 217 232 237 240 245 241 241 245 244 239 238 240 243 240 237 236 232 236 234 237 241 246 247 244 232 229 233 235 238 243 230 232 225 217 187 180 182 183 186 192 206 163 192 225 234 246
269 262 263 267 267 270 269 270 268 267 271 272 266 262 265 271 269 266 265 255 262 260 255 253 256 252 243 246 248 245 250 248 243 249 242 234 224 213 203 211 228 234 232 236 243 245 244 245 240 236 237 240 240 240 239 233 234 236 231 236 241 248 235 234 227 224 230 216 210 195 193 174 170 165 154 178 194 167 170 179 192 206 230 236 241
268 264 266 273 276 273 273 269 275 274 264 268 268 267 264 267 272 269 267 266 263 265 259 258 257 258 251 250 252 250 244 249 245 245 247 237 229 212 206 216 225 228 230 233 235 243 247 242 244 236 236 236 237 238 237 238 236 236 227 233 232 241 213 223 230 214 220 206 197 191 190 181 176 165 161 173 168 174 176 178 190 211 228 237 241
267 269 273 274 275 274 275 278 271 275 279 276 280 273 265 261 263 266 266 264 265 264 265 262 260 262 261 257 257 257 251 240 244 245 243 238 229 215 210 222 219 222 230 238 242 245 244 247 246 239 236 237 238 237 236 236 236 235 231 226 229 221 232 227 213 197 197 194 195 193 187 181 180 183 191 185 170 182 180 187 195 195 217 238 237
273 275 275 275 273 273 275 278 281 281 279 272 268 274 272 266 263 261 263 265 263 267 265 263 263 266 267 265 262 259 254 248 236 245 250 246 235 224 219 222 220 219 226 237 239 246 247 247 245 236 235 237 238 238 237 236 236 233 234 228 226 228 228 188 178 182 188 192 190 198 191 190 192 193 190 191 180 172 158 138 149 178 234 246 268
277 276 271 271 275 274 274 278 275 273 274 276 270 268 273 267 262 257 257 257 264 264 264 263 261 262 265 270 268 262 255 250 249 245 252 251 240 232 227 226 224 225 222 237 243 248 250 245 242 238 240 244 247 247 244 235 230 230 231 230 230 227 198 189 186 189 181 181 194 198 199 192 184 190 189 143 134 141 139 159 172 148 98 49 36
275 274 272 274 277 278 279 273 273 272 270 267 274 272 271 264 268 262 255 257 256 259 263 261 258 261 264 264 269 270 259 247 247 242 237 240 235 231 231 230 232 231 235 239 242 245 250 254 256 255 256 258 262 263 257 245 237 230 225 225 223 213 194 192 192 177 190 197 200 198 193 191 184 144 103 110 93 73 77 68 64 61 65 53 345
279 272 271 273 275 280 282 279 266 261 264 254 254 259 263 267 263 271 259 257 256 257 264 262 259 259 259 263 265 269 269 248 244 241 232 230 230 230 229 232 235 234 234 244 246 251 254 259 262 264 266 266 261 250 241 239 235 235 234 229 226 209 193 191 188 191 201 198 192 195 189 153 128 105 88 101 113 130 113 108 82 334 28 315 306
272 273 271 272 274 272 272 278 282 270 257 260 255 259 258 255 257 265 259 260 260 262 264 264 264 259 260 262 263 264 264 253 242 238 226 218 223 223 226 234 237 241 243 246 253 256 260 259 258 257 258 254 248 239 236 235 237 237 237 233 227 201 195 194 193 195 193 179 178 155 124 107 94 104 120 124 129 122 111 118 136 237 229 273 268
263 268 268 266 270 269 270 273 273 276 265 250 266 273 262 243 250 254 260 248 255 266 267 267 259 257 263 263 263 263 261 254 235 229 228 216 219 207 204 205 207 210 230 239 239 248 254 260 261 258 251 252 246 236 230 225 227 228 226 220 202 176 180 168 134 125 124 124 109 108 102 119 129 128 127 131 146 146 136 156 178 226 206 162 260
256 263 265 267 269 264 259 263 266 269 273 262 245 245 269 271 247 257 249 231 233 254 267 267 262 256 257 260 261 265 263 255 244 217 222 208 202 203 203 206 199 205 217 222 227 231 237 244 242 241 231 231 228 226 221 206 207 197 184 154 138 141 143 154 164 154 136 130 139 144 143 131 134 130 126 143 182 177 174 181 216 200 233 209 239
261 264 260 261 266 270 267 263 261 264 270 278 280 276 241 245 249 246 269 256 242 241 243 256 262 263 262 258 232 248 258 259 180 166 156 175 204 208 208 205 204 212 214 221 220 232 230 231 227 224 224 217 222 224 218 204 195 172 158 135 121 127 132 127 124 131 130 135 138 138 145 140 148 158 166 184 200 188 197 199 224 202 204 229 244
262 264 264 260 259 261 265 269 266 265 268 273 278 280 296 279 254 244 242 256 260 260 254 255 261 260 256 272 264 251 264 269 242 220 213 214 212 216 225 228 227 227 223 218 227 233 238 232 233 226 224 219 223 223 206 199 191 173 154 136 135 151 144 138 138 134 135 131 130 127 134 149 163 166 185 198 196 215 200 218 191 215 224 231 246
261 265 263 262 265 264 265 267 271 273 272 263 267 281 288 296 299 283 244 242 255 259 262 263 263 264 264 259 265 277 263 260 264 263 257 251 245 239 245 240 238 241 241 237 242 239 235 242 241 234 222 220 224 207 189 190 180 176 164 167 171 159 159 160 144 134 136 135 140 146 150 158 165 179 188 199 198 206 204 218 217 219 232 233 241
253 264 265 265 262 263 265 265 264 263 271 278 278 269 278 288 295 306 308 267 243 254 265 261 263 268 267 266 260 258 265 265 255 255 255 248 244 237 241 248 251 252 248 242 238 246 235 238 242 239 225 225 206 189 184 179 180 177 172 173 168 166 145 132 128 132 137 147 144 154 158 162 173 182 195 196 195 215 212 223 225 230 234 242 251
245 252 260 260 261 263 260 261 265 265 260 262 263 267 266 266 276 287 298 312 314 280 232 246 265 272 271 268 267 267 265 268 271 267 265 264 263 262 256 254 252 248 239 239 239 244 242 240 239 238 238 207 166 159 164 160 152 151 145 146 137 129 125 117 128 140 141 151 154 160 164 174 170 179 195 187 208 212 224 233 227 230 240 238 248
249 252 252 252 251 257 261 261 260 262 261 257 259 260 264 263 265 275 283 292 293 297 309 303 259 241 257 268 266 263 264 266 267 268 270 271 270 268 266 259 252 246 241 240 240 245 247 248 253 251 142 131 130 139 141 132 138 145 143 127 126 129 130 135 140 145 147 147 151 165 166 171 175 177 186 207 214 226 229 226 229 229 237 247 247
248 251 255 246 244 247 251 254 254 254 257 260 257 258 261 267 268 267 273 271 276 288 292 290 299 289 260 259 260 262 260 259 262 269 276 277 275 267 255 248 250 246 242 250 248 260 276 337 63 78 88 93 94 89 99 108 107 103 112 130 135 134 135 144 150 149 152 148 162 160 165 174 186 195 197 207 213 227 237 238 242 243 241 245 245
244 248 249 244 240 244 249 251 253 252 257 263 263 263 262 262 259 264 264 268 278 279 278 295 308 301 257 240 265 270 267 269 274 282 285 282 274 262 247 252 256 269 261 262 296 56 64 45 48 64 67 83 78 85 83 91 89 85 90 76 95 110 130 137 142 143 150 156 165 178 184 194 189 192 187 219 242 236 241 239 242 245 243 245 249
239 243 248 245 244 249 254 259 261 262 260 259 252 252 258 258 259 256 261 270 274 277 285 292 295 298 310 318 140 239 296 287 291 287 281 282 278 264 265 266 259 265 314 58 67 87 81 61 61 73 69 79 88 82 93 89 91 100 103 87 65 85 114 116 126 128 144 157 177 177 190 197 190 198 210 225 233 237 248 247 249 254 258 251 243
243 245 248 252 250 249 254 261 263 260 262 258 252 248 251 256 260 258 260 265 270 271 276 284 290 300 304 313 333 323 328 313 313 300 293 282 310 342 343 346 31 70 66 72 75 80 85 79 56 68 69 51 57 55 63 74 80 83 86 92 100 99 103 108 137 145 149 167 181 192 185 217 201 206 209 224 243 243 249 250 249 249 257 257 249
245 248 246 245 247 243 243 250 257 259 260 261 259 245 251 250 249 255 263 269 272 278 282 288 296 311 355 12 358 349 331 318 323 318 340 19 33 25 27 34 41 51 60 64 66 79 83 73 55 58 57 52 51 54 47 59 60 67 73 94 106 120 133 134 134 148 176 189 187 211 200 208 216 207 222 234 243 252 253 259 260 256 256 263 268
244 245 246 243 242 247 248 247 251 252 257 254 254 250 250 251 253 259 270 270 276 282 284 289 313 42 31 13 5 1 338 335 345 26 34 38 36 36 30 28 33 41 48 52 57 70 76 79 70 67 66 65 59 58 55 57 70 76 84 82 87 84 79 81 103 97 104 128 150 177 222 209 219 225 244 256 261 260 256 262 266 266 266 267 273
242 245 245 243 238 240 247 252 250 252 252 255 253 253 256 254 252 257 266 276 284 291 297 316 53 52 27 25 16 20 35 32 37 47 46 46 48 43 38 36 30 33 33 46 49 64 65 68 67 65 65 65 67 66 65 62 61 62 64 63 70 68 68 52 58 75 117 183 234 233 222 242 237 240 250 253 246 254 268 269 269 271 274 275 276
234 236 238 238 236 238 247 255 256 255 257 255 259 255 256 260 269 268 276 292 303 319 318 8 44 36 46 34 42 47 56 49 61 56 58 57 57 55 51 46 40 35 33 39 24 30 50 59 57 52 49 44 40 39 42 44 39 40 63 68 62 60 60 41 32 35 141 209 231 248 246 244 258 262 262 266 267 270 265 269 273 274 276 281 279
229 231 232 235 239 250 253 259 260 256 257 260 268 278 291 305 327 347 349 348 354 22 42 49 37 46 52 36 41 51 48 47 52 59 59 60 60 59 55 52 49 44 41 39 38 41 57 71 79 78 74 65 54 46 52 42 44 42 46 51 48 58 60 67 46 354 4 358 318 314 314 297 280 270 266 271 274 273 276 278 281 284 284 278 278
220 228 240 250 251 250 258 254 257 264 269 272 276 280 322 43 52 54 54 48 50 59 69 59 53 57 60 49 46 54 55 56 56 61 61 62 68 60 62 62 61 60 56 50 41 46 60 70 78 82 78 69 60 55 50 40 38 42 40 50 58 38 42 38 29 21 16 34 359 336 326 323 310 304 296 290 284 281 283 281 282 289 290 284 281
219 231 237 250 255 256 259 266 268 269 271 275 277 355 85 85 75 73 74 74 74 83 79 71 66 63 60 60 57 59 59 63 63 64 69 65 66 67 69 67 66 63 60 52 47 45 44 48 49 58 61 57 45 42 48 49 46 47 48 43 51 59 38 42 21 32 11 16 359 345 320 317 309 297 287 280 276 277 272 277 274 269 266 273 272
219 230 236 250 256 267 267 272 271 269 277 150 122 121 90 86 92 101 93 90 93 84 79 76 74 68 64 65 66 68 68 72 70 69 66 63 59 59 62 67 68 64 57 51 49 51 49 51 56 57 62 60 60 54 44 32 37 28 32 34 37 39 36 45 46 38 17 345 334 349 284 284 275 276 280 284 285 277 274 267 259 261 261 264 268
193 202 225 236 255 262 267 255 225 143 175 161 112 107 107 107 106 100 100 94 87 88 91 86 80 82 85 80 78 77 76 77 76 77 68 64 59 52 49 54 60 64 65 62 57 54 53 50 54 54 54 55 50 40 36 26 21 28 10 14 355 258 245 271 200 272 262 258 260 258 250 258 265 267 268 265 262 262 265 267 267 267 270 269 271
178 183 196 204 221 215 203 138 144 156 147 135 139 126 121 116 106 100 98 94 91 91 96 97 97 95 92 87 83 78 77 78 76 70 69 63 57 55 52 54 60 63 66 65 58 53 54 53 49 49 44 42 38 32 23 20 359 9 357 337 298 319 358 324 282 237 257 245 235 246 254 252 250 256 257 259 260 257 258 262 266 270 271 271 271
166 165 160 155 147 138 136 154 153 138 138 139 141 130 122 115 108 108 106 105 99 99 88 91 89 86 85 84 83 83 83 80 78 73 67 60 59 57 60 57 61 59 57 51 53 48 46 42 48 42 43 38 29 26 10 10 338 300 305 288 268 287 301 286 276 270 259 234 243 247 243 255 257 259 258 257 258 261 262 266 264 265 268 271 273
148 144 132 135 142 145 151 154 145 135 142 143 138 133 130 121 113 110 106 107 110 105 96 91 90 88 85 83 86 83 83 81 81 76 72 68 60 56 55 54 48 54 53 51 44 41 42 42 35 37 32 30 18 4 347 312 311 269 258 268 300 323 324 350 20 354 342 328 280 237 248 253 262 267 267 266 264 265 266 270 271 269 271 271 274